[[{"header":{"parameterUnit":"m.s-1","parameterCategory":1,"la1":30.2992,"la2":30.254,"lo1":-89.0895,"lo2":-89.0443,"dy":0.0025,"dx":0.0025,"nx":19,"ny":19,"refTime":"2026-03-20T21:00:00:Z","depth":0,"parameterNumber":2,"parameterNumberName":"U-component_of_WINDS"},"data":[0,0,0,-0.0271,-0.0267,-0.0068,-0.0067,0.0172,0.0174,0,0,0,0,0,0,0,0,0,0,0,-0.0341,-0.0339,-0.0271,-0.0266,-0.0068,-0.0067,0.0171,0.0174,0,0,0,0,0,0,0,0,0,0,0,-0.0341,-0.034,-0.0338,-0.0266,-0.0069,-0.0067,0.0171,0.0027,0,0,0,0,0,0,0,0,0,0,-0.0163,-0.0239,-0.034,-0.0338,-0.0265,-0.0069,-0.0067,0.002,0.0036,0.0075,0,0.0104,0,0.0142,0.0188,0.0189,0,0,0,-0.0257,-0.0252,-0.0189,-0.0338,-0.0263,-0.0069,-0.0155,0.0029,0.0047,0.0095,0.0108,0.0117,0.0146,0.019,0.0191,0.038,0.0381,0,0,-0.0268,-0.0311,-0.0201,-0.0178,-0.0212,-0.0162,-0.0149,0.004,0.0052,0.0109,0.0123,0.015,0.0191,0.0193,0.038,0.038,0,0,0,-0.0306,-0.0319,-0.0259,-0.0188,-0.0152,-0.0156,-0.0142,0.0043,0.0066,0.0126,0.0153,0.0193,0.0195,0.0379,0.038,0.0362,0,0,0,-0.0312,-0.034,-0.0265,-0.0289,-0.0156,-0.0052,-0.0143,0.0053,0.0076,0.0152,0.0193,0.0197,0.0379,0.038,0.0362,0.0362,0,0,0,-0.035,-0.0345,-0.032,-0.0291,-0.0208,-0.0054,-0.002,0.0059,0.0092,0.0189,0.0198,0.0379,0.038,0.0361,0.0361,0.0401,0,0,0,-0.0402,-0.0339,-0.0321,-0.024,-0.021,-0.0068,-0.0021,0.0087,0.0168,0.0194,0.0379,0.038,0.0361,0.0361,0.04,0.0428,0.0435,0,0,-0.0346,-0.0334,-0.0283,-0.0261,-0.0134,-0.0095,0.0031,0.0147,0.0195,0.0316,0.0322,0.0362,0.0361,0.0401,0.0485,0.049,0,0,0,-0.0279,-0.0243,-0.02,-0.0125,-0.0037,0.004,0.014,0.0183,0.0288,0.0248,0.0387,0.0388,0.0413,0.0429,0.0433,0.0459,0.0385,0.0384,0.0384,-0.026,-0.0202,-0.0112,-0.003,0.0041,0.0144,0.0209,0.0285,0.0322,0.0354,0.0392,0.0435,0.0452,0.0455,0.0481,0.0409,0.0409,0.0409,0.0409,-0.0171,-0.0109,-0.0061,0.0044,0.0105,0.0194,0.0296,0.032,0.0414,0.0412,0.0437,0.0432,0.0459,0.0485,0.0408,0.0408,0.0408,0.0408,0.0408,-0.0149,-0.0109,-0.006,0.0055,0.0138,0.0219,0.0307,0.036,0.041,0.0435,0.0482,0.0482,0.0492,0.0453,0.0453,0.0453,0.0453,0.0453,0.0453,-0.0146,-0.0089,-0.0023,0.0076,0.0132,0.0213,0.0316,0.0374,0.0451,0.0483,0.0484,0.052,0.0449,0.0432,0.0456,0.0456,0.0455,0.0455,0.0455,-0.0074,-0.0081,0.0021,0.0077,0.0199,0.0279,0.0345,0.0457,0.0512,0.0554,0.0585,0.0523,0.054,0.0537,0.0523,0.057,0.057,0.057,0.057,-0.0054,-0.0041,0.0077,0.0163,0.0254,0.0324,0.0441,0.0523,0.0607,0.0645,0.0646,0.0631,0.0625,0.0646,0.0641,0.0629,0.0702,0.0702,0.0702,-0.0004,0.002,0.0109,0.0189,0.0289,0.0374,0.0487,0.0586,0.068,0.0708,0.0677,0.0672,0.0649,0.0638,0.0667,0.0658,0.0637,0,0]},{"header":{"parameterUnit":"m.s-1","parameterCategory":1,"la1":30.2992,"la2":30.254,"lo1":-89.0895,"lo2":-89.0443,"dy":0.0025,"dx":0.0025,"nx":19,"ny":19,"refTime":"2026-03-20T21:00:00:Z","depth":0,"parameterNumber":3,"parameterNumberName":"V-component_of_WINDS"},"data":[0,0,0,4.6822,4.6828,4.7096,4.7097,4.7423,4.7426,0,0,0,0,0,0,0,0,0,0,0,4.6738,4.674,4.6822,4.6829,4.7096,4.7097,4.7423,4.7426,0,0,0,0,0,0,0,0,0,0,0,4.6737,4.6739,4.6742,4.683,4.7096,4.7097,4.7422,4.7225,0,0,0,0,0,0,0,0,0,0,4.6967,4.6885,4.6739,4.6742,4.6831,4.7095,4.7097,4.7215,4.7237,4.7297,0,4.7353,0,4.7395,4.7447,4.7449,0,0,0,4.6831,4.6867,4.6945,4.6742,4.6833,4.7095,4.6976,4.7228,4.7252,4.7325,4.7357,4.737,4.74,4.7449,4.7451,4.7801,4.7802,0,0,4.6816,4.6782,4.6928,4.696,4.6923,4.6967,4.6984,4.7243,4.7273,4.7359,4.7378,4.7406,4.7452,4.7454,4.7799,4.7801,0,0,0,4.6772,4.6771,4.6843,4.6947,4.6996,4.6975,4.6995,4.7262,4.7288,4.7381,4.741,4.7453,4.7457,4.7798,4.78,4.7847,0,0,0,4.6763,4.6746,4.6836,4.6818,4.6992,4.7134,4.7008,4.727,4.7301,4.7408,4.7454,4.746,4.7796,4.7799,4.7842,4.7875,0,0,0,4.6722,4.6741,4.6779,4.6816,4.693,4.713,4.7172,4.7278,4.7318,4.7449,4.7461,4.7795,4.7798,4.7838,4.7868,4.7961,0,0,0,4.6667,4.6812,4.6779,4.6952,4.6928,4.7158,4.717,4.7342,4.7459,4.7455,4.7796,4.78,4.7837,4.7864,4.7956,4.8035,4.8064,0,0,4.6831,4.683,4.6935,4.6913,4.7142,4.712,4.7353,4.749,4.7529,4.7706,4.7716,4.7844,4.7867,4.796,4.8234,4.8257,0,0,0,4.6976,4.7051,4.7119,4.7233,4.7344,4.7442,4.7547,4.7598,4.7751,4.7616,4.7901,4.7916,4.7972,4.8011,4.8031,4.8082,4.7816,4.7815,4.7815,4.716,4.7208,4.7385,4.7467,4.7576,4.7685,4.7777,4.7864,4.7875,4.7942,4.7996,4.8157,4.8202,4.8217,4.827,4.8038,4.8039,4.8039,4.8039,4.7408,4.7523,4.7541,4.772,4.7768,4.7916,4.8026,4.803,4.8173,4.812,4.8171,4.8111,4.8241,4.829,4.8043,4.8042,4.8042,4.8041,4.8041,4.7537,4.7601,4.7664,4.7836,4.7961,4.8034,4.8174,4.8211,4.8245,4.8296,4.8359,4.8358,4.8365,4.8323,4.8323,4.8324,4.8324,4.8325,4.8325,4.7647,4.7717,4.7833,4.7966,4.8045,4.8153,4.8264,4.8341,4.8436,4.8452,4.8452,4.8459,4.8245,4.8192,4.8334,4.8332,4.8331,4.833,4.833,4.7887,4.784,4.8019,4.8099,4.8259,4.8382,4.8428,4.8582,4.8651,4.8718,4.8714,4.8549,4.8549,4.8534,4.8491,4.8702,4.8702,4.8702,4.8702,4.7999,4.8004,4.8198,4.8324,4.8451,4.8511,4.871,4.8796,4.8877,4.8922,4.8896,4.8841,4.8823,4.8834,4.8813,4.8773,4.9051,4.9052,4.9052,4.8151,4.817,4.8335,4.842,4.8547,4.8655,4.8844,4.8984,4.9065,4.9067,4.8959,4.8944,4.8855,4.8823,4.8826,4.8791,4.872,0,0]}]]